Weather History for Pinedale, WY

Change the Weather History Date:

Thursday, October 18, 2012

  Actual Average (KBPI) Record (KBPI)
Temperature  
Mean Temperature 38 °F 38 °F  
Max Temperature 53 °F 55 °F 72 °F (2003)
Min Temperature 23 °F 21 °F 1 °F (1976)
Degree Days  
Heating Degree Days 27 27  
Month to date heating degree days 435  
Since 1 July heating degree days 1186  
Cooling Degree Days 0 0  
Month to date cooling degree days 0  
Year to date cooling degree days 35  
Moisture  
Dew Point 17 °F    
Average Humidity 45    
Maximum Humidity 74    
Minimum Humidity 24    
Precipitation  
Precipitation 0.00 in 0.02 in 0.33 in (2004)
Month to date precipitation 0.38  
Year to date precipitation 5.82  
Sea Level Pressure  
Sea Level Pressure 30.23 in    
Wind  
Wind Speed 14 mph (WNW)    
Max Wind Speed 26 mph    
Max Gust Speed 32 mph    
Visibility 10 miles    
Events      
T = Trace of Precipitation, MM = Missing Value Source: NWS Daily Summary

Daily Weather History Graph

Daily Weather History Graph

Search for Another Location

Airport:

Trip Planner

Search our weather history database for the weather conditions in past years. The results will help you decide how hot, cold, wet, or windy it might be!

Date:

Astronomy

Oct. 18, 2012 Rise Set
Actual Time 7:36 AM MDT 6:31 PM MDT
Civil Twilight 7:08 AM MDT 6:59 PM MDT
Nautical Twilight 6:35 AM MDT 7:32 PM MDT
Astronomical Twilight 6:02 AM MDT 8:05 PM MDT
Moon 11:27 AM MDT 9:03 PM MDT
Length of Visible Light 11h 51m
Length of Day
10h 54m
Waxing Crescent, 15% of the Moon is Illuminated
Oct 18
Waxing Crescent
Oct 21
First Quarter
Oct 29
Full
Nov 6
Last Quarter
Nov 13
New

Hourly Weather History & Observations

Time (MDT) Temp. Windchill Dew Point Humidity Pressure Visibility Wind Dir Wind Speed Gust Speed Precip Events Conditions
12:35 AM 28.4 °F 17.5 °F 17.6 °F 64% 30.19 in 10.0 mi NW 13.8 mph - N/A   Scattered Clouds
12:55 AM 28.4 °F 17.5 °F 17.6 °F 64% 30.19 in 10.0 mi NW 13.8 mph - N/A   Scattered Clouds
1:15 AM 28.4 °F 19.7 °F 17.6 °F 64% 30.19 in 10.0 mi NNW 9.2 mph - N/A   Clear
1:35 AM 26.6 °F 18.2 °F 17.6 °F 69% 30.19 in 10.0 mi NNW 8.1 mph - N/A   Clear
1:55 AM 28.4 °F 16.2 °F 17.6 °F 64% 30.19 in 10.0 mi NW 17.3 mph - N/A   Clear
2:15 AM 28.4 °F 17.0 °F 17.6 °F 64% 30.19 in 10.0 mi NW 15.0 mph - N/A   Clear
2:35 AM 28.4 °F 16.6 °F 17.6 °F 64% 30.20 in 10.0 mi NW 16.1 mph - N/A   Scattered Clouds
2:55 AM 30.2 °F 18.5 °F 17.6 °F 60% 30.20 in 10.0 mi NW 17.3 mph 23.0 mph N/A   Scattered Clouds
3:15 AM 30.2 °F 19.8 °F 17.6 °F 60% 30.21 in 10.0 mi NW 13.8 mph - N/A   Scattered Clouds
3:35 AM 30.2 °F 21.9 °F 17.6 °F 60% 30.21 in 10.0 mi WNW 9.2 mph - N/A   Scattered Clouds
4:15 AM 26.6 °F 20.0 °F 17.6 °F 69% 30.21 in 10.0 mi NNW 5.8 mph - N/A   Mostly Cloudy
4:35 AM 26.6 °F 19.1 °F 15.8 °F 64% 30.21 in 10.0 mi NW 6.9 mph - N/A   Mostly Cloudy
4:55 AM 26.6 °F 20.0 °F 15.8 °F 64% 30.21 in 10.0 mi West 5.8 mph - N/A   Mostly Cloudy
5:15 AM 26.6 °F 20.0 °F 15.8 °F 64% 30.22 in 10.0 mi West 5.8 mph - N/A   Scattered Clouds
5:35 AM 23.0 °F 14.7 °F 15.8 °F 74% 30.22 in 10.0 mi WNW 6.9 mph - N/A   Scattered Clouds
5:55 AM 24.8 °F 19.1 °F 15.8 °F 69% 30.22 in 10.0 mi West 4.6 mph - N/A   Scattered Clouds
6:15 AM 24.8 °F 20.5 °F 14.0 °F 64% 30.23 in 10.0 mi WNW 3.5 mph - N/A   Clear
6:55 AM 28.4 °F 19.7 °F 14.0 °F 55% 30.23 in 10.0 mi WNW 9.2 mph - N/A   Clear
7:15 AM 28.4 °F 21.2 °F 14.0 °F 55% 30.24 in 10.0 mi West 6.9 mph - N/A   Scattered Clouds
7:35 AM 26.6 °F 18.2 °F 14.0 °F 59% 30.25 in 10.0 mi WSW 8.1 mph - N/A   Scattered Clouds
8:15 AM 30.2 °F 21.3 °F 14.0 °F 51% 30.26 in 10.0 mi West 10.4 mph - N/A   Clear
8:35 AM 32.0 °F 22.5 °F 14.0 °F 48% 30.26 in 10.0 mi WNW 12.7 mph 18.4 mph N/A   Clear
8:55 AM 33.8 °F 23.5 °F 12.2 °F 41% 30.26 in 10.0 mi WNW 16.1 mph 23.0 mph N/A   Clear
9:15 AM 35.6 °F 25.5 °F 12.2 °F 38% 30.26 in 10.0 mi WNW 17.3 mph 21.9 mph N/A   Clear
9:35 AM 37.4 °F 27.2 °F 12.2 °F 36% 30.27 in 10.0 mi WNW 19.6 mph 25.3 mph N/A   Clear
10:15 AM 41.0 °F 31.1 °F 10.4 °F 29% 30.27 in 10.0 mi WNW 23.0 mph 27.6 mph N/A   Clear
10:35 AM 41.0 °F 31.4 °F 12.2 °F 31% 30.27 in 10.0 mi NW 21.9 mph 28.8 mph N/A   Clear
10:55 AM 41.0 °F 30.9 °F 12.2 °F 31% 30.27 in 10.0 mi WNW 24.2 mph 29.9 mph N/A   Clear
11:15 AM 42.8 °F 33.5 °F 12.2 °F 29% 30.26 in 10.0 mi West 23.0 mph 29.9 mph N/A   Clear
11:35 AM 42.8 °F 32.9 °F 12.2 °F 29% 30.27 in 10.0 mi WNW 26.5 mph 32.2 mph N/A   Clear
11:55 AM 44.6 °F 35.9 °F 12.2 °F 27% 30.26 in 10.0 mi WNW 23.0 mph 31.1 mph N/A   Clear
12:15 PM 46.4 °F 38.5 °F 12.2 °F 25% 30.26 in 10.0 mi West 21.9 mph 28.8 mph N/A   Scattered Clouds
12:35 PM 46.4 °F 38.5 °F 14.0 °F 27% 30.26 in 10.0 mi WNW 21.9 mph 27.6 mph N/A   Scattered Clouds
12:55 PM 46.4 °F 38.3 °F 14.0 °F 27% 30.26 in 10.0 mi WNW 23.0 mph 27.6 mph N/A   Clear
1:15 PM 48.2 °F - 14.0 °F 25% 30.25 in 10.0 mi WNW 19.6 mph 26.5 mph N/A   Clear
1:35 PM 50.0 °F - 14.0 °F 24% 30.25 in 10.0 mi WNW 21.9 mph 27.6 mph N/A   Clear
1:55 PM 50.0 °F - 15.8 °F 26% 30.24 in 10.0 mi West 20.7 mph 26.5 mph N/A   Clear
2:15 PM 50.0 °F - 15.8 °F 26% 30.24 in 10.0 mi WNW 16.1 mph 21.9 mph N/A   Clear
2:35 PM 51.8 °F - 17.6 °F 26% 30.23 in 10.0 mi WNW 17.3 mph 21.9 mph N/A   Clear
2:55 PM 51.8 °F - 17.6 °F 26% 30.22 in 10.0 mi West 17.3 mph 24.2 mph N/A   Clear
3:15 PM 51.8 °F - 19.4 °F 28% 30.22 in 10.0 mi WNW 19.6 mph 26.5 mph N/A   Clear
3:35 PM 53.6 °F - 19.4 °F 26% 30.22 in 10.0 mi West 20.7 mph 25.3 mph N/A   Clear
3:55 PM 53.6 °F - 21.2 °F 28% 30.22 in 10.0 mi WNW 21.9 mph 27.6 mph N/A   Clear
4:15 PM 53.6 °F - 21.2 °F 28% 30.22 in 10.0 mi WNW 16.1 mph 29.9 mph N/A   Clear
4:35 PM 53.6 °F - 21.2 °F 28% 30.22 in 10.0 mi WNW 19.6 mph 25.3 mph N/A   Clear
4:55 PM 51.8 °F - 21.2 °F 30% 30.23 in 10.0 mi WNW 19.6 mph 27.6 mph N/A   Clear
5:15 PM 51.8 °F - 21.2 °F 30% 30.23 in 10.0 mi WNW 19.6 mph - N/A   Clear
5:55 PM 50.0 °F - 21.2 °F 32% 30.23 in 10.0 mi WNW 17.3 mph 23.0 mph N/A   Mostly Cloudy
6:15 PM 48.2 °F - 23.0 °F 37% 30.24 in 10.0 mi West 12.7 mph - N/A   Mostly Cloudy
6:35 PM 46.4 °F 40.4 °F 23.0 °F 40% 30.24 in 10.0 mi West 13.8 mph - N/A   Mostly Cloudy
6:55 PM 44.6 °F 39.2 °F 23.0 °F 43% 30.24 in 10.0 mi West 10.4 mph - N/A   Mostly Cloudy
7:15 PM 42.8 °F 36.6 °F 23.0 °F 46% 30.25 in 10.0 mi West 11.5 mph - N/A   Scattered Clouds
7:55 PM 41.0 °F 35.8 °F 23.0 °F 49% 30.24 in 10.0 mi NW 8.1 mph - N/A   Clear
8:15 PM 37.4 °F 32.8 °F 23.0 °F 56% 30.25 in 10.0 mi North 5.8 mph - N/A   Clear
8:35 PM 35.6 °F 28.0 °F 23.0 °F 60% 30.24 in 10.0 mi NNW 10.4 mph - N/A   Clear
8:55 PM 33.8 °F 27.0 °F 23.0 °F 65% 30.24 in 10.0 mi WNW 8.1 mph - N/A   Clear
9:15 PM 33.8 °F 27.7 °F 23.0 °F 65% 30.24 in 10.0 mi WNW 6.9 mph - N/A   Clear